#timestamp,LO_Frequency,Hit,StdDev 
1536415215.8,286047000.3,N
1536415235.6,286047000.3,N
1536415255.4,286047000.2,N
1536415275.3,286047000.2,N
1536415295.1,286047001.0,N
1536415315.9,286047001.1,N
1536415335.7,286047000.9,N
1536415355.5,286047001.0,N
1536415375.4,286047000.7,N
1536415395.2,286047000.4,N
1536415415.0,286047000.8,N
1536415415.9,286047000.8,N
1536415435.8,286047001.1,N
1536415455.6,286047000.6,N
1536415475.5,286046999.8,N
1536415495.3,286046999.8,N
1536415515.1,286047000.1,N
1536415535.9,286047000.1,N
1536415555.7,286047000.5,N
1536415575.5,286047000.4,N
1536415595.4,286047000.9,N
1536415615.2,286047000.8,N
1536415635.1,286046999.9,N
1536415636.0,286046999.9,N
1536415655.8,286047000.0,N
1536415675.6,286047000.8,N
1536415695.5,286047000.9,N
1536415715.3,286047000.0,N
1536415735.2,286047002.7,Y
1536415755.9,286047000.9,P
1536415775.7,286047000.1,N
1536415795.6,286046999.8,N
1536415815.4,286046999.8,N
1536415835.2,286047000.3,N
1536415855.1,286047000.4,N
1536415856.0,286047000.4,N
1536415875.8,286047000.9,N
1536415895.7,286047000.2,N
1536415915.5,286047000.0,N
1536415935.3,286047000.3,N
1536415955.2,286046999.7,N
1536415975.0,286047000.3,N
1536415975.9,286047000.3,N
1536415995.8,286047002.8,Y
1536416015.6,286047000.2,P
1536416035.4,286046999.9,P
1536416055.3,286047000.2,N
1536416075.1,286046999.8,N
1536416095.8,286046999.8,N
1536416115.7,286047000.3,N
1536416135.5,286047000.3,N
1536416155.4,286047000.6,N
1536416175.2,286047000.5,N
1536416195.0,286047000.2,N
1536416195.9,286047000.2,N
1536416215.8,286047000.2,N
1536416235.6,286047000.2,N
1536416255.5,286046999.7,N
1536416275.3,286046999.8,N
1536416295.1,286047000.4,N
1536416315.9,286047002.7,Y
1536416335.7,286047000.1,P
1536416355.5,286046999.8,P
1536416375.4,286047001.5,P
1536416395.2,286047004.4,Y
1536416415.1,286047002.3,P
1536416416.0,286047002.3,N
1536416435.8,286047002.8,P
1536416455.6,286047001.9,N
1536416475.5,286047001.8,N
1536416495.3,286047001.9,N
1536416515.2,286047001.9,N
1536416535.9,286047001.5,N
1536416555.7,286047001.9,N
1536416575.6,286047004.2,Y
1536416595.4,286046999.7,P
1536416615.2,286047002.7,N
1536416635.1,286047002.7,N
1536416636.0,286047002.7,N
1536416655.8,286046999.7,N
1536416675.7,286047000.6,N
1536416695.5,286047000.2,N
1536416715.3,286046999.9,N
1536416735.2,286047001.1,N
1536416755.0,286047000.4,N
1536416755.9,286047000.4,N
1536416775.8,286047000.3,N
1536416795.6,286047000.3,N
1536416815.4,286047000.1,N
1536416835.3,286047000.1,N
1536416855.1,286046999.9,N
1536416875.9,286047000.4,N
1536416895.7,286047000.7,N
1536416915.5,286047000.8,N
1536416935.4,286046998.3,N
1536416955.2,286046999.1,N
1536416975.0,286046999.6,N
1536416975.9,286046999.6,N
1536416995.8,286046996.5,Y
1536417015.6,286046997.7,P
1536417035.5,286046997.1,N
1536417055.3,286046996.8,N
1536417075.1,286046999.6,N
1536417095.9,286046996.6,N
1536417115.7,286046996.9,N
1536417135.6,286046997.1,N
1536417155.4,286046996.5,N
1536417175.2,286046996.6,N
1536417195.1,286046996.5,N
1536417196.0,286046996.5,N
1536417215.8,286046998.8,N
1536417235.6,286046998.9,N
1536417255.5,286046998.5,N
1536417275.3,286047001.0,N
1536417295.2,286047001.1,N
1536417315.9,286046998.7,N
1536417335.7,286046998.8,N
1536417355.6,286046998.8,N
1536417375.4,286046999.5,N
1536417395.2,286046998.8,N
1536417415.1,286046998.2,N
1536417416.0,286046998.2,N
1536417435.8,286047001.1,N
1536417455.7,286047001.1,N
1536417475.5,286047000.9,N
1536417495.3,286047000.6,N
1536417515.2,286047000.9,N
1536417535.0,286046999.9,N
1536417535.9,286046999.9,N
1536417555.8,286047000.6,N
1536417575.6,286047001.1,N
1536417595.4,286046998.1,N
1536417615.3,286047000.3,N
1536417635.1,286047000.4,N
1536417655.8,286047000.9,N
1536417675.7,286047000.3,N
1536417695.5,286047000.5,N
1536417715.4,286046998.2,N
1536417735.2,286047000.9,N
1536417755.0,286047001.0,N
1536417755.9,286047001.0,N
1536417775.8,286047001.0,N
1536417795.6,286047001.2,N
1536417815.5,286047001.0,N
1536417835.3,286047002.3,N
1536417855.1,286047001.5,N
1536417875.9,286047002.3,N
1536417895.7,286047001.8,N
1536417915.5,286047004.3,Y
1536417935.4,286047001.4,P
1536417955.2,286047001.6,P
1536417975.1,286047004.0,P
1536417976.0,286047004.0,Y
1536417995.8,286047002.7,P
1536418015.6,286047002.0,P
1536418035.5,286047001.5,P
1536418055.3,286047001.9,Y
1536418075.2,286046998.6,P
1536418095.9,286047000.8,N
1536418115.7,286047001.2,N
1536418135.6,286047000.3,N
1536418155.4,286047000.0,N
1536418175.2,286047001.2,N
1536418195.1,286047001.2,N
1536418196.0,286047001.2,N
1536418215.8,286046998.1,N
1536418235.7,286046999.6,N
1536418255.5,286046997.7,N
1536418275.3,286046997.4,N
1536418295.2,286046996.5,N
1536418315.0,286046998.5,N
1536418315.9,286046998.5,N
1536418335.8,286046998.1,N
1536418355.6,286047001.2,N
1536418375.4,286047001.0,N
1536418395.3,286047000.4,N
1536418415.1,286047000.4,N
1536418435.8,286047000.0,N
1536418455.7,286047000.3,N
1536418475.5,286047000.1,N
1536418495.4,286047000.2,N
1536418515.2,286047000.4,N
1536418535.0,286047000.2,N
1536418535.9,286047000.2,N
1536418555.8,286047000.5,N
1536418575.6,286047000.4,N
1536418595.4,286047002.3,N
1536418615.3,286047000.1,N
1536418635.1,286047001.5,N
1536418655.9,286047002.5,N
1536418675.7,286047002.5,N
1536418695.5,286047002.7,N
1536418715.4,286047002.7,N
1536418735.2,286047000.1,N
1536418755.0,286047000.3,N
1536418756.0,286047000.3,N
1536418775.8,286047000.9,N
1536418795.6,286047000.3,N
